Time,TemperatureF,DewpointF,PressureIn,WindDirection,WindDirectionDegrees,WindSpeedMPH,WindSpeedGustMPH,Humidity,HourlyPrecipIn,Conditions,Clouds,dailyrainin,SolarRadiationWatts/m^2,SoftwareType,DateUTC
2013-04-03 00:00:00,50.1,44.8,30.21,North,350,1.0,1.0,82,0.00,,,0.00,0,Wunderground v.1.15,2013-04-03 07:00:00,
2013-04-03 00:05:00,50.2,44.9,30.21,North,351,0.0,1.0,82,0.00,,,0.00,0,Wunderground v.1.15,2013-04-03 07:05:00,
2013-04-03 00:10:00,50.1,44.8,30.21,North,351,0.0,0.0,82,0.00,,,0.00,0,Wunderground v.1.15,2013-04-03 07:10:00,
2013-04-03 00:15:00,50.0,44.7,30.20,North,351,0.0,2.0,82,0.00,,,0.00,0,Wunderground v.1.15,2013-04-03 07:15:00,
2013-04-03 00:20:00,49.8,44.8,30.20,North,351,0.0,2.0,83,0.00,,,0.00,0,Wunderground v.1.15,2013-04-03 07:20:00,
2013-04-03 00:25:00,49.7,44.7,30.20,North,355,0.0,2.0,83,0.00,,,0.00,0,Wunderground v.1.15,2013-04-03 07:25:00,
2013-04-03 00:30:00,49.6,44.6,30.20,North,355,0.0,2.0,83,0.00,,,0.00,0,Wunderground v.1.15,2013-04-03 07:30:00,
2013-04-03 00:35:00,49.4,44.5,30.20,North,355,1.0,2.0,83,0.00,,,0.00,0,Wunderground v.1.15,2013-04-03 07:35:00,
2013-04-03 00:40:00,49.2,44.6,30.20,North,355,1.0,3.0,84,0.00,,,0.00,0,Wunderground v.1.15,2013-04-03 07:40:00,
2013-04-03 00:45:00,49.2,44.6,30.20,North,355,1.0,3.0,84,0.00,,,0.00,0,Wunderground v.1.15,2013-04-03 07:45:00,
2013-04-03 00:50:00,48.9,44.3,30.20,North,355,2.0,3.0,84,0.00,,,0.00,0,Wunderground v.1.15,2013-04-03 07:50:00,
2013-04-03 00:55:00,48.8,44.5,30.20,North,355,0.0,1.0,85,0.00,,,0.00,0,Wunderground v.1.15,2013-04-03 07:55:00,
2013-04-03 01:00:00,48.7,44.4,30.21,North,355,0.0,1.0,85,0.00,,,0.00,0,Wunderground v.1.15,2013-04-03 08:00:00,
2013-04-03 01:05:00,48.7,44.4,30.21,North,355,0.0,2.0,85,0.00,,,0.00,0,Wunderground v.1.15,2013-04-03 08:05:00,
2013-04-03 01:10:00,48.8,44.5,30.21,North,5,0.0,3.0,85,0.00,,,0.00,0,Wunderground v.1.15,2013-04-03 08:10:00,
2013-04-03 01:15:00,48.7,44.4,30.20,North,355,0.0,4.0,85,0.00,,,0.00,0,Wunderground v.1.15,2013-04-03 08:15:00,
2013-04-03 01:20:00,48.6,44.6,30.20,North,351,0.0,4.0,86,0.00,,,0.00,0,Wunderground v.1.15,2013-04-03 08:20:00,
2013-04-03 01:25:00,48.5,44.5,30.20,North,351,2.0,2.0,86,0.00,,,0.00,0,Wunderground v.1.15,2013-04-03 08:25:00,
2013-04-03 01:30:00,48.4,44.7,30.21,North,351,2.0,2.0,87,0.00,,,0.00,0,Wunderground v.1.15,2013-04-03 08:30:00,
2013-04-03 01:35:00,48.2,44.5,30.21,North,350,0.0,3.0,87,0.00,,,0.00,0,Wunderground v.1.15,2013-04-03 08:35:00,
2013-04-03 01:40:00,48.2,44.5,30.21,North,350,1.0,3.0,87,0.00,,,0.00,0,Wunderground v.1.15,2013-04-03 08:40:00,
2013-04-03 01:45:00,48.2,44.5,30.21,North,350,0.0,1.0,87,0.00,,,0.00,0,Wunderground v.1.15,2013-04-03 08:45:00,
2013-04-03 01:50:00,48.4,44.7,30.22,NNW,346,3.0,3.0,87,0.00,,,0.00,0,Wunderground v.1.15,2013-04-03 08:50:00,
2013-04-03 01:55:00,48.5,44.8,30.22,NNW,338,0.0,4.0,87,0.00,,,0.00,0,Wunderground v.1.15,2013-04-03 08:55:00,
2013-04-03 02:00:00,48.7,45.3,30.21,NNE,22,1.0,5.0,88,0.00,,,0.00,0,Wunderground v.1.15,2013-04-03 09:00:00,
2013-04-03 02:05:00,48.6,44.9,30.21,NNE,22,1.0,3.0,87,0.00,,,0.00,0,Wunderground v.1.15,2013-04-03 09:05:00,
2013-04-03 02:10:00,48.5,45.1,30.21,NNE,15,0.0,1.0,88,0.00,,,0.00,0,Wunderground v.1.15,2013-04-03 09:10:00,
2013-04-03 02:15:00,48.5,45.1,30.21,NNE,15,0.0,1.0,88,0.00,,,0.00,0,Wunderground v.1.15,2013-04-03 09:15:00,
2013-04-03 02:20:00,48.3,44.9,30.21,NNE,15,0.0,0.0,88,0.00,,,0.00,0,Wunderground v.1.15,2013-04-03 09:20:00,
2013-04-03 02:25:00,48.2,44.8,30.21,NNE,15,2.0,2.0,88,0.00,,,0.00,0,Wunderground v.1.15,2013-04-03 09:25:00,
2013-04-03 02:30:00,48.3,44.9,30.21,NNW,337,1.0,4.0,88,0.00,,,0.00,0,Wunderground v.1.15,2013-04-03 09:30:00,
2013-04-03 02:35:00,48.1,44.7,30.21,NNW,348,0.0,2.0,88,0.00,,,0.00,0,Wunderground v.1.15,2013-04-03 09:35:00,
2013-04-03 02:40:00,47.9,44.8,30.21,NNW,348,0.0,2.0,89,0.00,,,0.00,0,Wunderground v.1.15,2013-04-03 09:40:00,
2013-04-03 02:45:00,47.9,44.8,30.21,NNW,348,0.0,2.0,89,0.00,,,0.00,0,Wunderground v.1.15,2013-04-03 09:45:00,
2013-04-03 02:50:00,48.0,44.9,30.20,NNW,348,0.0,2.0,89,0.00,,,0.00,0,Wunderground v.1.15,2013-04-03 09:50:00,
2013-04-03 02:55:00,47.8,44.7,30.20,NNE,28,0.0,3.0,89,0.00,,,0.00,0,Wunderground v.1.15,2013-04-03 09:55:00,
2013-04-03 03:00:00,47.8,44.7,30.20,NNE,28,0.0,3.0,89,0.00,,,0.00,0,Wunderground v.1.15,2013-04-03 10:00:00,
2013-04-03 03:05:00,47.7,44.9,30.21,NNE,28,0.0,2.0,90,0.00,,,0.00,0,Wunderground v.1.15,2013-04-03 10:05:00,
2013-04-03 03:10:00,47.7,44.9,30.20,NNE,28,0.0,2.0,90,0.00,,,0.00,0,Wunderground v.1.15,2013-04-03 10:10:00,
2013-04-03 03:15:00,47.8,45.0,30.20,NNE,28,2.0,2.0,90,0.00,,,0.00,0,Wunderground v.1.15,2013-04-03 10:15:00,
2013-04-03 03:20:00,47.8,45.0,30.20,NNE,28,0.0,2.0,90,0.00,,,0.00,0,Wunderground v.1.15,2013-04-03 10:20:00,
2013-04-03 03:25:00,47.8,45.0,30.20,NNE,28,2.0,2.0,90,0.00,,,0.00,0,Wunderground v.1.15,2013-04-03 10:25:00,
2013-04-03 03:30:00,47.7,44.9,30.20,NNE,28,0.0,2.0,90,0.00,,,0.00,0,Wunderground v.1.15,2013-04-03 10:30:00,
2013-04-03 03:35:00,47.8,45.0,30.20,NNE,28,1.0,3.0,90,0.00,,,0.00,0,Wunderground v.1.15,2013-04-03 10:35:00,
2013-04-03 03:40:00,47.8,45.0,30.20,NNE,28,1.0,3.0,90,0.00,,,0.00,0,Wunderground v.1.15,2013-04-03 10:40:00,
2013-04-03 03:45:00,47.8,44.7,30.20,NNE,28,1.0,2.0,89,0.00,,,0.00,0,Wunderground v.1.15,2013-04-03 10:45:00,
2013-04-03 03:50:00,47.7,44.6,30.20,NNE,28,0.0,2.0,89,0.00,,,0.00,0,Wunderground v.1.15,2013-04-03 10:50:00,
2013-04-03 03:55:00,47.5,44.7,30.20,NNE,28,0.0,1.0,90,0.00,,,0.00,0,Wunderground v.1.15,2013-04-03 10:55:00,
2013-04-03 04:00:00,47.6,44.8,30.20,NNE,28,0.0,2.0,90,0.00,,,0.00,0,Wunderground v.1.15,2013-04-03 11:00:00,
2013-04-03 04:05:00,47.5,44.7,30.20,NNE,28,0.0,0.0,90,0.00,,,0.00,0,Wunderground v.1.15,2013-04-03 11:05:00,
2013-04-03 04:10:00,47.4,44.6,30.20,NNE,28,0.0,0.0,90,0.00,,,0.00,0,Wunderground v.1.15,2013-04-03 11:10:00,
2013-04-03 04:15:00,47.2,44.4,30.20,NNE,28,0.0,1.0,90,0.00,,,0.00,0,Wunderground v.1.15,2013-04-03 11:15:00,
2013-04-03 04:20:00,47.2,44.7,30.20,NNE,28,0.0,1.0,91,0.00,,,0.00,0,Wunderground v.1.15,2013-04-03 11:20:00,
2013-04-03 04:25:00,47.1,44.3,30.20,NNE,28,2.0,2.0,90,0.00,,,0.00,0,Wunderground v.1.15,2013-04-03 11:25:00,
2013-04-03 04:30:00,47.1,44.6,30.20,NNE,28,0.0,2.0,91,0.00,,,0.00,0,Wunderground v.1.15,2013-04-03 11:30:00,
2013-04-03 04:35:00,47.1,44.3,30.20,NNE,28,0.0,1.0,90,0.00,,,0.00,0,Wunderground v.1.15,2013-04-03 11:35:00,
2013-04-03 04:40:00,46.9,44.4,30.20,NNE,28,0.0,1.0,91,0.00,,,0.00,0,Wunderground v.1.15,2013-04-03 11:40:00,
2013-04-03 04:45:00,46.8,44.3,30.20,NNE,28,1.0,1.0,91,0.00,,,0.00,0,Wunderground v.1.15,2013-04-03 11:45:00,
2013-04-03 04:50:00,46.9,44.4,30.20,NNE,28,0.0,1.0,91,0.00,,,0.00,0,Wunderground v.1.15,2013-04-03 11:50:00,
2013-04-03 04:55:00,46.7,44.2,30.20,NNE,28,0.0,0.0,91,0.00,,,0.00,0,Wunderground v.1.15,2013-04-03 11:55:00,
2013-04-03 05:00:00,46.5,44.0,30.20,NNE,28,0.0,0.0,91,0.00,,,0.00,0,Wunderground v.1.15,2013-04-03 12:00:00,
2013-04-03 05:05:00,46.5,44.0,30.20,NNE,28,0.0,1.0,91,0.00,,,0.00,0,Wunderground v.1.15,2013-04-03 12:05:00,
2013-04-03 05:10:00,46.5,44.3,30.20,NNE,28,0.0,1.0,92,0.00,,,0.00,0,Wunderground v.1.15,2013-04-03 12:10:00,
2013-04-03 05:15:00,46.5,44.0,30.20,NNE,28,0.0,0.0,91,0.00,,,0.00,0,Wunderground v.1.15,2013-04-03 12:15:00,
2013-04-03 05:20:00,46.3,44.1,30.20,NNE,28,0.0,0.0,92,0.00,,,0.00,0,Wunderground v.1.15,2013-04-03 12:20:00,
2013-04-03 05:25:00,46.3,44.1,30.20,NNE,28,0.0,0.0,92,0.00,,,0.00,0,Wunderground v.1.15,2013-04-03 12:25:00,
2013-04-03 05:30:00,46.3,44.1,30.20,NNE,28,2.0,2.0,92,0.00,,,0.00,0,Wunderground v.1.15,2013-04-03 12:30:00,
2013-04-03 05:35:00,46.5,44.3,30.20,NNE,28,2.0,2.0,92,0.00,,,0.00,0,Wunderground v.1.15,2013-04-03 12:35:00,
2013-04-03 05:40:00,46.6,44.4,30.20,NNE,28,0.0,2.0,92,0.00,,,0.00,0,Wunderground v.1.15,2013-04-03 12:40:00,
2013-04-03 05:45:00,46.6,44.4,30.20,NNE,28,0.0,1.0,92,0.00,,,0.00,0,Wunderground v.1.15,2013-04-03 12:45:00,
2013-04-03 05:50:00,46.5,44.3,30.20,NNE,28,0.0,1.0,92,0.00,,,0.00,0,Wunderground v.1.15,2013-04-03 12:50:00,
2013-04-03 05:55:00,46.6,44.4,30.20,NNE,28,0.0,0.0,92,0.00,,,0.00,0,Wunderground v.1.15,2013-04-03 12:55:00,
2013-04-03 06:00:00,46.8,44.6,30.20,NNE,28,0.0,0.0,92,0.00,,,0.00,0,Wunderground v.1.15,2013-04-03 13:00:00,
2013-04-03 06:05:00,46.9,44.7,30.20,NNE,28,0.0,0.0,92,0.00,,,0.00,0,Wunderground v.1.15,2013-04-03 13:05:00,
2013-04-03 06:10:00,46.9,44.7,30.20,NNE,28,0.0,0.0,92,0.00,,,0.00,0,Wunderground v.1.15,2013-04-03 13:10:00,
2013-04-03 06:15:00,47.0,44.8,30.20,NNE,28,0.0,2.0,92,0.00,,,0.00,0,Wunderground v.1.15,2013-04-03 13:15:00,
2013-04-03 06:20:00,47.0,44.8,30.19,NNE,28,2.0,2.0,92,0.00,,,0.00,0,Wunderground v.1.15,2013-04-03 13:20:00,
2013-04-03 06:25:00,47.2,44.7,30.19,NNE,28,1.0,2.0,91,0.00,,,0.00,0,Wunderground v.1.15,2013-04-03 13:25:00,
2013-04-03 06:30:00,47.4,44.9,30.19,NNE,28,0.0,2.0,91,0.00,,,0.00,0,Wunderground v.1.15,2013-04-03 13:30:00,
2013-04-03 06:35:00,47.5,45.0,30.19,NNE,28,1.0,3.0,91,0.00,,,0.00,0,Wunderground v.1.15,2013-04-03 13:35:00,
2013-04-03 06:40:00,47.7,44.9,30.19,NNE,28,1.0,3.0,90,0.00,,,0.00,0,Wunderground v.1.15,2013-04-03 13:40:00,
2013-04-03 06:45:00,47.7,44.9,30.19,NNE,28,0.0,2.0,90,0.00,,,0.00,0,Wunderground v.1.15,2013-04-03 13:45:00,
2013-04-03 06:50:00,47.8,45.0,30.19,NNE,28,1.0,2.0,90,0.00,,,0.00,5,Wunderground v.1.15,2013-04-03 13:50:00,
2013-04-03 06:55:00,47.9,45.1,30.19,NNE,31,1.0,3.0,90,0.00,,,0.00,9,Wunderground v.1.15,2013-04-03 13:55:00,
2013-04-03 07:00:00,47.9,45.4,30.19,NNE,31,0.0,3.0,91,0.00,,,0.00,14,Wunderground v.1.15,2013-04-03 14:00:00,
2013-04-03 07:05:00,48.0,45.5,30.19,NNE,31,0.0,1.0,91,0.00,,,0.00,23,Wunderground v.1.15,2013-04-03 14:05:00,
2013-04-03 07:10:00,48.2,45.4,30.19,NNE,31,0.0,2.0,90,0.00,,,0.00,35,Wunderground v.1.15,2013-04-03 14:10:00,
2013-04-03 07:15:00,48.4,45.6,30.19,NNE,31,1.0,2.0,90,0.00,,,0.00,40,Wunderground v.1.15,2013-04-03 14:15:00,
2013-04-03 07:20:00,48.5,45.7,30.19,NNE,33,1.0,3.0,90,0.00,,,0.00,53,Wunderground v.1.15,2013-04-03 14:20:00,
2013-04-03 07:25:00,48.5,45.7,30.19,East,96,2.0,5.0,90,0.00,,,0.00,67,Wunderground v.1.15,2013-04-03 14:25:00,
2013-04-03 07:30:00,48.8,46.0,30.19,ESE,104,0.0,5.0,90,0.00,,,0.00,100,Wunderground v.1.15,2013-04-03 14:30:00,
2013-04-03 07:35:00,49.1,46.3,30.19,South,187,0.0,4.0,90,0.00,,,0.00,127,Wunderground v.1.15,2013-04-03 14:35:00,
2013-04-03 07:40:00,49.4,46.3,30.19,SW,232,2.0,4.0,89,0.00,,,0.00,113,Wunderground v.1.15,2013-04-03 14:40:00,
2013-04-03 07:45:00,49.4,46.3,30.19,WSW,240,0.0,3.0,89,0.00,,,0.00,84,Wunderground v.1.15,2013-04-03 14:45:00,
2013-04-03 07:50:00,49.3,46.2,30.19,WSW,239,0.0,3.0,89,0.00,,,0.00,128,Wunderground v.1.15,2013-04-03 14:50:00,
2013-04-03 07:55:00,49.8,46.4,30.19,SW,222,0.0,2.0,88,0.00,,,0.00,125,Wunderground v.1.15,2013-04-03 14:55:00,
2013-04-03 08:00:00,50.1,46.7,30.19,SSW,200,2.0,3.0,88,0.00,,,0.00,151,Wunderground v.1.15,2013-04-03 15:00:00,
2013-04-03 08:05:00,49.9,46.5,30.18,SSW,192,2.0,2.0,88,0.00,,,0.00,109,Wunderground v.1.15,2013-04-03 15:05:00,
2013-04-03 08:09:00,50.0,46.6,30.18,WSW,254,2.0,3.0,88,0.00,,,0.00,163,Wunderground v.1.15,2013-04-03 15:09:00,
2013-04-03 08:14:00,49.7,46.0,30.18,ESE,114,2.0,4.0,87,0.00,,,0.00,244,Wunderground v.1.15,2013-04-03 15:14:00,
2013-04-03 08:19:00,50.6,46.6,30.18,SE,136,3.0,4.0,86,0.00,,,0.00,144,Wunderground v.1.15,2013-04-03 15:19:00,
2013-04-03 08:25:00,50.0,46.3,30.18,ESE,105,0.0,5.0,87,0.00,,,0.00,302,Wunderground v.1.15,2013-04-03 15:25:00,
2013-04-03 08:30:00,50.2,46.2,30.18,ESE,102,1.0,5.0,86,0.00,,,0.00,216,Wunderground v.1.15,2013-04-03 15:30:00,
2013-04-03 08:35:00,50.4,46.4,30.18,ESE,117,1.0,3.0,86,0.00,,,0.00,162,Wunderground v.1.15,2013-04-03 15:35:00,
2013-04-03 08:40:00,50.8,46.5,30.18,ESE,105,1.0,3.0,85,0.00,,,0.00,214,Wunderground v.1.15,2013-04-03 15:40:00,
2013-04-03 08:45:00,50.9,46.6,30.18,ESE,107,0.0,3.0,85,0.00,,,0.00,171,Wunderground v.1.15,2013-04-03 15:45:00,
2013-04-03 08:49:00,50.3,46.0,30.18,ENE,77,0.0,3.0,85,0.00,,,0.00,179,Wunderground v.1.15,2013-04-03 15:49:00,
2013-04-03 08:55:00,50.9,46.6,30.18,East,84,1.0,2.0,85,0.00,,,0.00,144,Wunderground v.1.15,2013-04-03 15:55:00,
2013-04-03 09:00:00,51.1,46.4,30.17,SSE,153,0.0,4.0,84,0.00,,,0.00,130,Wunderground v.1.15,2013-04-03 16:00:00,
2013-04-03 09:05:00,51.0,46.3,30.17,SSE,153,2.0,3.0,84,0.00,,,0.00,104,Wunderground v.1.15,2013-04-03 16:05:00,
2013-04-03 09:10:00,50.9,46.2,30.17,SSE,153,1.0,1.0,84,0.00,,,0.00,113,Wunderground v.1.15,2013-04-03 16:10:00,
2013-04-03 09:15:00,50.6,45.9,30.17,SSE,153,0.0,3.0,84,0.00,,,0.00,121,Wunderground v.1.15,2013-04-03 16:15:00,
2013-04-03 09:20:00,50.4,46.1,30.17,SE,138,0.0,1.0,85,0.00,,,0.00,142,Wunderground v.1.15,2013-04-03 16:20:00,
2013-04-03 09:25:00,50.5,46.2,30.17,SE,138,0.0,2.0,85,0.00,,,0.00,202,Wunderground v.1.15,2013-04-03 16:25:00,
2013-04-03 09:30:00,51.7,46.7,30.17,SE,140,1.0,1.0,83,0.00,,,0.00,350,Wunderground v.1.15,2013-04-03 16:30:00,
2013-04-03 09:35:00,52.2,46.9,30.16,SSE,158,1.0,3.0,82,0.00,,,0.00,299,Wunderground v.1.15,2013-04-03 16:35:00,
2013-04-03 09:40:00,52.9,46.9,30.17,SSE,161,1.0,2.0,80,0.00,,,0.00,452,Wunderground v.1.15,2013-04-03 16:40:00,
2013-04-03 09:45:00,53.1,46.8,30.16,South,169,1.0,3.0,79,0.00,,,0.00,158,Wunderground v.1.15,2013-04-03 16:45:00,
2013-04-03 09:50:00,52.5,46.8,30.15,South,174,2.0,2.0,81,0.00,,,0.00,427,Wunderground v.1.15,2013-04-03 16:50:00,
2013-04-03 09:55:00,53.6,47.2,30.15,South,184,3.0,3.0,79,0.00,,,0.00,468,Wunderground v.1.15,2013-04-03 16:55:00,
2013-04-03 10:00:00,53.8,47.1,30.15,WSW,246,4.0,4.0,78,0.00,,,0.00,503,Wunderground v.1.15,2013-04-03 17:00:00,
2013-04-03 10:05:00,53.8,47.4,30.15,WSW,256,4.0,4.0,79,0.00,,,0.00,380,Wunderground v.1.15,2013-04-03 17:05:00,
2013-04-03 10:10:00,55.3,48.2,30.15,WSW,238,1.0,3.0,77,0.00,,,0.00,577,Wunderground v.1.15,2013-04-03 17:10:00,
2013-04-03 10:15:00,55.5,47.3,30.15,SW,229,2.0,4.0,74,0.00,,,0.00,635,Wunderground v.1.15,2013-04-03 17:15:00,
2013-04-03 10:20:00,55.8,47.6,30.15,SSE,165,0.0,2.0,74,0.00,,,0.00,267,Wunderground v.1.15,2013-04-03 17:20:00,
2013-04-03 10:25:00,56.3,47.8,30.15,South,169,1.0,3.0,73,0.00,,,0.00,223,Wunderground v.1.15,2013-04-03 17:25:00,
2013-04-03 10:30:00,55.4,47.2,30.15,NE,50,1.0,2.0,74,0.00,,,0.00,251,Wunderground v.1.15,2013-04-03 17:30:00,
2013-04-03 10:35:00,54.6,46.8,30.15,ESE,116,4.0,4.0,75,0.00,,,0.00,179,Wunderground v.1.15,2013-04-03 17:35:00,
2013-04-03 10:40:00,54.1,46.7,30.15,ESE,111,1.0,2.0,76,0.00,,,0.00,202,Wunderground v.1.15,2013-04-03 17:40:00,
2013-04-03 10:45:00,54.4,46.6,30.15,ENE,69,0.0,4.0,75,0.00,,,0.00,220,Wunderground v.1.15,2013-04-03 17:45:00,
2013-04-03 10:50:00,54.4,47.0,30.15,ENE,69,1.0,1.0,76,0.00,,,0.00,213,Wunderground v.1.15,2013-04-03 17:50:00,
2013-04-03 10:55:00,54.5,46.7,30.15,ENE,57,2.0,4.0,75,0.00,,,0.00,197,Wunderground v.1.15,2013-04-03 17:55:00,
2013-04-03 11:00:00,54.6,46.8,30.15,North,360,2.0,2.0,75,0.00,,,0.00,211,Wunderground v.1.15,2013-04-03 18:00:00,
2013-04-03 11:05:00,54.7,47.3,30.15,NW,322,4.0,6.0,76,0.00,,,0.00,288,Wunderground v.1.15,2013-04-03 18:05:00,
2013-04-03 11:10:00,55.4,47.6,30.15,NNW,342,5.0,5.0,75,0.00,,,0.00,439,Wunderground v.1.15,2013-04-03 18:10:00,
2013-04-03 11:16:00,55.9,48.1,30.15,NW,323,4.0,6.0,75,0.00,,,0.00,346,Wunderground v.1.15,2013-04-03 18:16:00,
2013-04-03 11:21:00,56.0,47.8,30.15,NNE,28,1.0,3.0,74,0.00,,,0.00,459,Wunderground v.1.15,2013-04-03 18:21:00,
2013-04-03 11:26:00,56.5,47.6,30.15,NNW,333,2.0,6.0,72,0.00,,,0.00,345,Wunderground v.1.15,2013-04-03 18:26:00,
2013-04-03 11:31:00,56.2,47.7,30.15,North,9,5.0,5.0,73,0.00,,,0.00,297,Wunderground v.1.15,2013-04-03 18:31:00,
2013-04-03 11:36:00,55.6,47.1,30.15,North,355,0.0,5.0,73,0.00,,,0.00,311,Wunderground v.1.15,2013-04-03 18:36:00,
2013-04-03 11:40:00,55.8,47.3,30.15,NW,308,2.0,3.0,73,0.00,,,0.00,392,Wunderground v.1.15,2013-04-03 18:40:00,
2013-04-03 11:45:00,57.3,48.3,30.15,NW,313,5.0,7.0,72,0.00,,,0.00,756,Wunderground v.1.15,2013-04-03 18:45:00,
2013-04-03 11:50:00,57.5,47.8,30.15,East,95,3.0,4.0,70,0.00,,,0.00,526,Wunderground v.1.15,2013-04-03 18:50:00,
2013-04-03 11:55:00,57.6,47.5,30.14,NE,49,3.0,5.0,69,0.00,,,0.00,450,Wunderground v.1.15,2013-04-03 18:55:00,
2013-04-03 12:00:00,57.9,47.8,30.14,NW,308,4.0,4.0,69,0.00,,,0.00,828,Wunderground v.1.15,2013-04-03 19:00:00,
2013-04-03 12:05:00,58.0,47.5,30.14,West,267,1.0,5.0,68,0.00,,,0.00,258,Wunderground v.1.15,2013-04-03 19:05:00,
2013-04-03 12:11:00,58.5,48.0,30.14,NW,315,3.0,3.0,68,0.00,,,0.00,780,Wunderground v.1.15,2013-04-03 19:11:00,
2013-04-03 12:16:00,59.4,48.0,30.15,NW,309,3.0,5.0,66,0.00,,,0.00,805,Wunderground v.1.15,2013-04-03 19:16:00,
2013-04-03 12:21:00,59.4,47.6,30.14,NE,39,2.0,3.0,65,0.00,,,0.00,745,Wunderground v.1.15,2013-04-03 19:21:00,
2013-04-03 12:26:00,59.4,47.6,30.14,NE,36,0.0,5.0,65,0.00,,,0.00,840,Wunderground v.1.15,2013-04-03 19:26:00,
2013-04-03 12:31:00,59.6,47.4,30.14,NNE,26,2.0,6.0,64,0.00,,,0.00,759,Wunderground v.1.15,2013-04-03 19:31:00,
2013-04-03 12:35:00,59.0,47.7,30.14,NNE,19,4.0,6.0,66,0.00,,,0.00,770,Wunderground v.1.15,2013-04-03 19:35:00,
2013-04-03 12:40:00,60.1,47.5,30.14,ESE,112,2.0,4.0,63,0.00,,,0.00,742,Wunderground v.1.15,2013-04-03 19:40:00,
2013-04-03 12:45:00,60.3,46.8,30.14,SSE,159,3.0,4.0,61,0.00,,,0.00,657,Wunderground v.1.15,2013-04-03 19:45:00,
2013-04-03 12:50:00,60.1,46.6,30.14,West,262,3.0,4.0,61,0.00,,,0.00,624,Wunderground v.1.15,2013-04-03 19:50:00,
2013-04-03 12:56:00,60.1,47.0,30.13,NW,308,1.0,9.0,62,0.00,,,0.00,705,Wunderground v.1.15,2013-04-03 19:56:00,
2013-04-03 13:01:00,59.7,46.7,30.13,NNW,329,0.0,3.0,62,0.00,,,0.00,536,Wunderground v.1.15,2013-04-03 20:01:00,
2013-04-03 13:06:00,60.2,46.7,30.13,West,281,3.0,7.0,61,0.00,,,0.00,508,Wunderground v.1.15,2013-04-03 20:06:00,
2013-04-03 13:11:00,59.7,46.2,30.13,SSE,159,6.0,11.0,61,0.00,,,0.00,603,Wunderground v.1.15,2013-04-03 20:11:00,
2013-04-03 13:16:00,60.3,47.2,30.13,South,188,2.0,11.0,62,0.00,,,0.00,494,Wunderground v.1.15,2013-04-03 20:16:00,
2013-04-03 13:21:00,60.9,46.9,30.13,NNW,335,1.0,3.0,60,0.00,,,0.00,603,Wunderground v.1.15,2013-04-03 20:21:00,
2013-04-03 13:26:00,61.4,47.4,30.13,ENE,71,0.0,8.0,60,0.00,,,0.00,613,Wunderground v.1.15,2013-04-03 20:26:00,
2013-04-03 13:31:00,61.0,47.0,30.13,NNW,345,2.0,7.0,60,0.00,,,0.00,487,Wunderground v.1.15,2013-04-03 20:31:00,
2013-04-03 13:36:00,60.3,46.8,30.12,WNW,302,3.0,7.0,61,0.00,,,0.00,492,Wunderground v.1.15,2013-04-03 20:36:00,
2013-04-03 13:41:00,59.8,46.3,30.12,NW,309,3.0,4.0,61,0.00,,,0.00,455,Wunderground v.1.15,2013-04-03 20:41:00,
2013-04-03 13:46:00,60.0,46.5,30.13,NW,315,6.0,8.0,61,0.00,,,0.00,504,Wunderground v.1.15,2013-04-03 20:46:00,
2013-04-03 13:51:00,60.3,46.8,30.12,NW,310,1.0,6.0,61,0.00,,,0.00,415,Wunderground v.1.15,2013-04-03 20:51:00,
2013-04-03 13:56:00,60.5,47.0,30.12,NW,315,3.0,7.0,61,0.00,,,0.00,387,Wunderground v.1.15,2013-04-03 20:56:00,
2013-04-03 14:02:00,60.7,46.3,30.13,WNW,297,3.0,7.0,59,0.00,,,0.00,504,Wunderground v.1.15,2013-04-03 21:02:00,
2013-04-03 14:07:00,60.2,46.3,30.13,NNW,334,6.0,8.0,60,0.00,,,0.00,619,Wunderground v.1.15,2013-04-03 21:07:00,
2013-04-03 14:12:00,60.5,46.1,30.12,WSW,252,1.0,5.0,59,0.00,,,0.00,534,Wunderground v.1.15,2013-04-03 21:12:00,
2013-04-03 14:17:00,61.1,45.7,30.12,West,275,1.0,8.0,57,0.00,,,0.00,522,Wunderground v.1.15,2013-04-03 21:17:00,
2013-04-03 14:22:00,60.9,45.6,30.12,WSW,250,2.0,4.0,57,0.00,,,0.00,434,Wunderground v.1.15,2013-04-03 21:22:00,
2013-04-03 14:27:00,61.9,46.5,30.12,WSW,257,1.0,4.0,57,0.00,,,0.00,540,Wunderground v.1.15,2013-04-03 21:27:00,
2013-04-03 14:32:00,61.0,45.7,30.12,West,276,2.0,5.0,57,0.00,,,0.00,575,Wunderground v.1.15,2013-04-03 21:32:00,
2013-04-03 14:37:00,60.7,45.8,30.12,West,267,5.0,6.0,58,0.00,,,0.00,557,Wunderground v.1.15,2013-04-03 21:37:00,
2013-04-03 14:42:00,60.5,45.6,30.12,WSW,238,1.0,5.0,58,0.00,,,0.00,536,Wunderground v.1.15,2013-04-03 21:42:00,
2013-04-03 14:47:00,61.6,45.3,30.11,WSW,255,6.0,7.0,55,0.00,,,0.00,520,Wunderground v.1.15,2013-04-03 21:47:00,
2013-04-03 14:52:00,61.3,45.0,30.11,West,259,6.0,6.0,55,0.00,,,0.00,520,Wunderground v.1.15,2013-04-03 21:52:00,
2013-04-03 14:57:00,61.4,45.1,30.11,WSW,248,4.0,7.0,55,0.00,,,0.00,497,Wunderground v.1.15,2013-04-03 21:57:00,
2013-04-03 15:02:00,62.2,45.3,30.11,WSW,242,6.0,6.0,54,0.00,,,0.00,381,Wunderground v.1.15,2013-04-03 22:02:00,
2013-04-03 15:07:00,61.4,44.1,30.10,WNW,284,1.0,10.0,53,0.00,,,0.00,295,Wunderground v.1.15,2013-04-03 22:07:00,
2013-04-03 15:12:00,61.2,43.9,30.10,WSW,254,5.0,6.0,53,0.00,,,0.00,279,Wunderground v.1.15,2013-04-03 22:12:00,
2013-04-03 15:17:00,61.0,44.7,30.10,WSW,258,3.0,6.0,55,0.00,,,0.00,287,Wunderground v.1.15,2013-04-03 22:17:00,
2013-04-03 15:22:00,60.8,44.5,30.10,West,261,2.0,4.0,55,0.00,,,0.00,271,Wunderground v.1.15,2013-04-03 22:22:00,
2013-04-03 15:27:00,60.8,44.5,30.10,WSW,255,4.0,5.0,55,0.00,,,0.00,287,Wunderground v.1.15,2013-04-03 22:27:00,
2013-04-03 15:32:00,60.9,44.6,30.10,WSW,250,5.0,6.0,55,0.00,,,0.00,341,Wunderground v.1.15,2013-04-03 22:32:00,
2013-04-03 15:37:00,60.6,44.3,30.10,West,275,4.0,6.0,55,0.00,,,0.00,353,Wunderground v.1.15,2013-04-03 22:37:00,
2013-04-03 15:42:00,60.6,44.3,30.09,WSW,257,3.0,5.0,55,0.00,,,0.00,350,Wunderground v.1.15,2013-04-03 22:42:00,
2013-04-03 15:47:00,60.6,44.3,30.09,West,260,4.0,5.0,55,0.00,,,0.00,350,Wunderground v.1.15,2013-04-03 22:47:00,
2013-04-03 15:52:00,61.2,44.9,30.09,West,259,3.0,4.0,55,0.00,,,0.00,343,Wunderground v.1.15,2013-04-03 22:52:00,
2013-04-03 15:57:00,61.2,44.4,30.09,West,277,2.0,4.0,54,0.00,,,0.00,329,Wunderground v.1.15,2013-04-03 22:57:00,
2013-04-03 16:02:00,61.6,44.3,30.09,West,277,1.0,2.0,53,0.00,,,0.00,316,Wunderground v.1.15,2013-04-03 23:02:00,
2013-04-03 16:07:00,61.5,44.7,30.08,West,277,2.0,3.0,54,0.00,,,0.00,301,Wunderground v.1.15,2013-04-03 23:07:00,
2013-04-03 16:12:00,61.0,44.2,30.09,West,263,3.0,4.0,54,0.00,,,0.00,272,Wunderground v.1.15,2013-04-03 23:12:00,
2013-04-03 16:17:00,60.7,43.9,30.08,West,259,3.0,4.0,54,0.00,,,0.00,262,Wunderground v.1.15,2013-04-03 23:17:00,
2013-04-03 16:22:00,61.1,43.3,30.08,West,261,3.0,3.0,52,0.00,,,0.00,267,Wunderground v.1.15,2013-04-03 23:22:00,
2013-04-03 16:27:00,61.4,43.6,30.09,West,263,2.0,4.0,52,0.00,,,0.00,288,Wunderground v.1.15,2013-04-03 23:27:00,
2013-04-03 16:32:00,61.2,43.9,30.09,West,262,1.0,3.0,53,0.00,,,0.00,272,Wunderground v.1.15,2013-04-03 23:32:00,
2013-04-03 16:37:00,61.6,43.8,30.08,WNW,292,4.0,5.0,52,0.00,,,0.00,279,Wunderground v.1.15,2013-04-03 23:37:00,
2013-04-03 16:42:00,61.5,43.7,30.08,NW,305,1.0,3.0,52,0.00,,,0.00,287,Wunderground v.1.15,2013-04-03 23:42:00,
2013-04-03 16:47:00,61.8,44.5,30.08,NW,304,3.0,3.0,53,0.00,,,0.00,279,Wunderground v.1.15,2013-04-03 23:47:00,
2013-04-03 16:52:00,61.7,44.4,30.08,WSW,242,2.0,2.0,53,0.00,,,0.00,279,Wunderground v.1.15,2013-04-03 23:52:00,
2013-04-03 16:57:00,62.2,44.9,30.08,West,261,1.0,3.0,53,0.00,,,0.00,271,Wunderground v.1.15,2013-04-03 23:57:00,
2013-04-03 17:02:00,62.0,44.7,30.08,West,269,2.0,4.0,53,0.00,,,0.00,279,Wunderground v.1.15,2013-04-04 00:02:00,
2013-04-03 17:07:00,62.5,45.1,30.08,NW,307,3.0,5.0,53,0.00,,,0.00,288,Wunderground v.1.15,2013-04-04 00:07:00,
2013-04-03 17:12:00,62.7,44.8,30.07,North,360,2.0,3.0,52,0.00,,,0.00,258,Wunderground v.1.15,2013-04-04 00:12:00,
2013-04-03 17:17:00,62.3,44.4,30.07,NNE,16,2.0,4.0,52,0.00,,,0.00,211,Wunderground v.1.15,2013-04-04 00:17:00,
2013-04-03 17:22:00,62.0,45.2,30.07,NE,36,1.0,2.0,54,0.00,,,0.00,193,Wunderground v.1.15,2013-04-04 00:22:00,
2013-04-03 17:27:00,62.2,45.3,30.07,NW,324,2.0,6.0,54,0.00,,,0.00,167,Wunderground v.1.15,2013-04-04 00:27:00,
2013-04-03 17:32:00,61.8,45.5,30.07,North,360,3.0,3.0,55,0.00,,,0.00,171,Wunderground v.1.15,2013-04-04 00:32:00,
2013-04-03 17:37:00,61.8,45.5,30.07,North,5,0.0,4.0,55,0.00,,,0.00,160,Wunderground v.1.15,2013-04-04 00:37:00,
2013-04-03 17:42:00,61.6,44.8,30.07,NNE,19,0.0,1.0,54,0.00,,,0.00,149,Wunderground v.1.15,2013-04-04 00:42:00,
2013-04-03 17:47:00,61.6,45.3,30.06,NNE,19,0.0,3.0,55,0.00,,,0.00,146,Wunderground v.1.15,2013-04-04 00:47:00,
2013-04-03 17:52:00,62.0,45.2,30.06,NNE,19,1.0,2.0,54,0.00,,,0.00,139,Wunderground v.1.15,2013-04-04 00:52:00,
2013-04-03 17:57:00,61.7,45.4,30.06,NNE,19,1.0,3.0,55,0.00,,,0.00,128,Wunderground v.1.15,2013-04-04 00:57:00,
2013-04-03 18:02:00,61.4,45.1,30.06,NE,38,0.0,3.0,55,0.00,,,0.00,118,Wunderground v.1.15,2013-04-04 01:02:00,
2013-04-03 18:07:00,61.4,45.6,30.05,NE,36,0.0,3.0,56,0.00,,,0.00,116,Wunderground v.1.15,2013-04-04 01:07:00,
2013-04-03 18:12:00,61.5,45.7,30.05,NE,36,0.0,2.0,56,0.00,,,0.00,113,Wunderground v.1.15,2013-04-04 01:12:00,
2013-04-03 18:17:00,61.3,45.5,30.05,NE,42,0.0,4.0,56,0.00,,,0.00,105,Wunderground v.1.15,2013-04-04 01:17:00,
2013-04-03 18:22:00,61.2,45.4,30.04,NE,47,2.0,3.0,56,0.00,,,0.00,97,Wunderground v.1.15,2013-04-04 01:22:00,
2013-04-03 18:27:00,61.0,45.2,30.04,NE,44,2.0,4.0,56,0.00,,,0.00,83,Wunderground v.1.15,2013-04-04 01:27:00,
2013-04-03 18:32:00,60.9,45.6,30.04,NE,44,0.0,2.0,57,0.00,,,0.00,79,Wunderground v.1.15,2013-04-04 01:32:00,
2013-04-03 18:37:00,60.9,45.6,30.03,NE,49,1.0,3.0,57,0.00,,,0.00,70,Wunderground v.1.15,2013-04-04 01:37:00,
2013-04-03 18:42:00,60.7,45.8,30.03,NE,40,1.0,4.0,58,0.00,,,0.00,63,Wunderground v.1.15,2013-04-04 01:42:00,
2013-04-03 18:47:00,60.4,45.5,30.03,NE,42,3.0,4.0,58,0.00,,,0.00,58,Wunderground v.1.15,2013-04-04 01:47:00,
2013-04-03 18:52:00,60.4,45.5,30.03,NE,43,2.0,3.0,58,0.00,,,0.00,46,Wunderground v.1.15,2013-04-04 01:52:00,
2013-04-03 18:57:00,60.4,46.0,30.03,NE,43,0.0,3.0,59,0.00,,,0.00,37,Wunderground v.1.15,2013-04-04 01:57:00,
2013-04-03 19:02:00,59.9,45.5,30.03,NE,55,1.0,3.0,59,0.00,,,0.00,33,Wunderground v.1.15,2013-04-04 02:02:00,
2013-04-03 19:07:00,59.4,45.5,30.03,NE,36,2.0,4.0,60,0.00,,,0.00,28,Wunderground v.1.15,2013-04-04 02:07:00,
2013-04-03 19:12:00,59.0,45.1,30.03,NE,51,2.0,4.0,60,0.00,,,0.00,23,Wunderground v.1.15,2013-04-04 02:12:00,
2013-04-03 19:17:00,58.7,45.3,30.03,NE,53,3.0,5.0,61,0.00,,,0.00,18,Wunderground v.1.15,2013-04-04 02:17:00,
2013-04-03 19:22:00,58.5,45.1,30.03,ENE,58,1.0,4.0,61,0.00,,,0.00,14,Wunderground v.1.15,2013-04-04 02:22:00,
2013-04-03 19:27:00,58.4,45.4,30.02,NE,53,0.0,4.0,62,0.00,,,0.00,11,Wunderground v.1.15,2013-04-04 02:27:00,
2013-04-03 19:32:00,58.2,45.2,30.02,NE,56,3.0,3.0,62,0.00,,,0.00,7,Wunderground v.1.15,2013-04-04 02:32:00,
2013-04-03 19:37:00,58.1,45.6,30.02,NE,55,0.0,4.0,63,0.00,,,0.00,0,Wunderground v.1.15,2013-04-04 02:37:00,
2013-04-03 19:42:00,57.8,45.3,30.02,NNE,17,0.0,3.0,63,0.00,,,0.00,0,Wunderground v.1.15,2013-04-04 02:42:00,
2013-04-03 19:47:00,57.5,45.4,30.02,NE,52,2.0,5.0,64,0.00,,,0.00,0,Wunderground v.1.15,2013-04-04 02:47:00,
2013-04-03 19:52:00,57.2,45.5,30.01,NE,50,3.0,5.0,65,0.00,,,0.00,0,Wunderground v.1.15,2013-04-04 02:52:00,
2013-04-03 19:57:00,56.9,45.3,30.01,NE,50,2.0,5.0,65,0.00,,,0.00,0,Wunderground v.1.15,2013-04-04 02:57:00,
2013-04-03 20:02:00,56.7,45.5,30.01,NE,50,0.0,2.0,66,0.00,,,0.00,0,Wunderground v.1.15,2013-04-04 03:02:00,
2013-04-03 20:07:00,56.5,45.7,30.01,NE,50,0.0,2.0,67,0.00,,,0.00,0,Wunderground v.1.15,2013-04-04 03:07:00,
2013-04-03 20:12:00,56.2,45.8,30.01,NE,50,0.0,0.0,68,0.00,,,0.00,0,Wunderground v.1.15,2013-04-04 03:12:00,
2013-04-03 20:17:00,56.0,46.0,30.01,NE,50,0.0,2.0,69,0.00,,,0.00,0,Wunderground v.1.15,2013-04-04 03:17:00,
2013-04-03 20:22:00,55.9,45.9,30.01,NE,50,0.0,2.0,69,0.00,,,0.00,0,Wunderground v.1.15,2013-04-04 03:22:00,
2013-04-03 20:27:00,55.8,45.8,30.01,NE,50,1.0,2.0,69,0.00,,,0.00,0,Wunderground v.1.15,2013-04-04 03:27:00,
2013-04-03 20:32:00,55.7,46.1,30.01,NE,50,0.0,1.0,70,0.00,,,0.00,0,Wunderground v.1.15,2013-04-04 03:32:00,
2013-04-03 20:37:00,55.6,46.0,30.01,NE,50,0.0,1.0,70,0.00,,,0.00,0,Wunderground v.1.15,2013-04-04 03:37:00,
2013-04-03 20:42:00,55.4,46.2,30.01,ENE,65,2.0,3.0,71,0.00,,,0.00,0,Wunderground v.1.15,2013-04-04 03:42:00,
2013-04-03 20:48:00,55.2,46.0,30.00,NE,54,1.0,4.0,71,0.00,,,0.00,0,Wunderground v.1.15,2013-04-04 03:48:00,
2013-04-03 20:53:00,55.2,46.0,30.01,ENE,59,1.0,2.0,71,0.00,,,0.00,0,Wunderground v.1.15,2013-04-04 03:53:00,
2013-04-03 20:58:00,55.1,45.5,30.00,NE,55,2.0,3.0,70,0.00,,,0.00,0,Wunderground v.1.15,2013-04-04 03:58:00,
2013-04-03 21:00:00,55.1,45.9,30.00,NE,55,0.0,3.0,71,0.00,,,0.00,0,Wunderground v.1.15,2013-04-04 04:00:00,
2013-04-03 21:05:00,55.1,45.9,30.01,NE,56,1.0,3.0,71,0.00,,,0.00,0,Wunderground v.1.15,2013-04-04 04:05:00,
2013-04-03 21:10:00,55.0,45.8,30.01,NE,56,1.0,3.0,71,0.00,,,0.00,0,Wunderground v.1.15,2013-04-04 04:10:00,
2013-04-03 21:15:00,54.9,46.0,30.01,NE,56,0.0,2.0,72,0.00,,,0.00,0,Wunderground v.1.15,2013-04-04 04:15:00,
2013-04-03 21:20:00,54.7,45.8,30.01,NE,56,1.0,2.0,72,0.00,,,0.00,0,Wunderground v.1.15,2013-04-04 04:20:00,
2013-04-03 21:25:00,54.6,46.1,30.01,NE,55,2.0,2.0,73,0.00,,,0.00,0,Wunderground v.1.15,2013-04-04 04:25:00,
2013-04-03 21:30:00,54.5,46.0,30.01,North,355,2.0,3.0,73,0.00,,,0.00,0,Wunderground v.1.15,2013-04-04 04:30:00,
2013-04-03 21:35:00,54.3,46.2,30.01,North,355,1.0,2.0,74,0.00,,,0.00,0,Wunderground v.1.15,2013-04-04 04:35:00,
2013-04-03 21:40:00,54.1,46.0,30.01,North,355,2.0,3.0,74,0.00,,,0.00,0,Wunderground v.1.15,2013-04-04 04:40:00,
2013-04-03 21:45:00,53.9,46.2,30.01,North,355,1.0,2.0,75,0.00,,,0.00,0,Wunderground v.1.15,2013-04-04 04:45:00,
2013-04-03 21:50:00,53.7,46.3,30.01,North,355,2.0,2.0,76,0.00,,,0.00,0,Wunderground v.1.15,2013-04-04 04:50:00,
2013-04-03 21:55:00,53.6,46.2,30.01,North,355,2.0,2.0,76,0.00,,,0.00,0,Wunderground v.1.15,2013-04-04 04:55:00,
2013-04-03 22:00:00,53.4,46.4,30.00,North,355,1.0,3.0,77,0.00,,,0.00,0,Wunderground v.1.15,2013-04-04 05:00:00,
2013-04-03 22:05:00,53.3,46.3,30.00,North,355,1.0,3.0,77,0.00,,,0.00,0,Wunderground v.1.15,2013-04-04 05:05:00,
2013-04-03 22:10:00,53.2,46.5,30.00,North,355,1.0,3.0,78,0.00,,,0.00,0,Wunderground v.1.15,2013-04-04 05:10:00,
2013-04-03 22:15:00,53.0,46.3,30.00,North,355,0.0,2.0,78,0.00,,,0.00,0,Wunderground v.1.15,2013-04-04 05:15:00,
2013-04-03 22:20:00,52.9,46.2,29.99,North,355,1.0,2.0,78,0.00,,,0.00,0,Wunderground v.1.15,2013-04-04 05:20:00,
2013-04-03 22:25:00,52.9,46.2,29.99,North,355,1.0,2.0,78,0.00,,,0.00,0,Wunderground v.1.15,2013-04-04 05:25:00,
2013-04-03 22:30:00,52.9,46.6,29.99,North,355,1.0,2.0,79,0.00,,,0.00,0,Wunderground v.1.15,2013-04-04 05:30:00,
2013-04-03 22:35:00,52.8,46.5,29.99,North,355,1.0,3.0,79,0.00,,,0.00,0,Wunderground v.1.15,2013-04-04 05:35:00,
2013-04-03 22:40:00,52.9,46.6,29.99,North,355,0.0,3.0,79,0.00,,,0.00,0,Wunderground v.1.15,2013-04-04 05:40:00,
2013-04-03 22:45:00,52.7,46.4,29.99,North,355,2.0,3.0,79,0.00,,,0.00,0,Wunderground v.1.15,2013-04-04 05:45:00,
2013-04-03 22:50:00,52.6,46.6,29.99,North,355,2.0,3.0,80,0.00,,,0.00,0,Wunderground v.1.15,2013-04-04 05:50:00,
2013-04-03 22:55:00,52.7,46.7,29.99,North,355,0.0,3.0,80,0.00,,,0.00,0,Wunderground v.1.15,2013-04-04 05:55:00,
2013-04-03 23:00:00,52.7,46.7,29.99,North,355,0.0,3.0,80,0.00,,,0.00,0,Wunderground v.1.15,2013-04-04 06:00:00,
2013-04-03 23:05:00,52.5,46.5,29.99,North,355,0.0,1.0,80,0.00,,,0.00,0,Wunderground v.1.15,2013-04-04 06:05:00,
2013-04-03 23:10:00,52.4,46.4,29.99,North,355,0.0,1.0,80,0.00,,,0.00,0,Wunderground v.1.15,2013-04-04 06:10:00,
2013-04-03 23:15:00,52.4,46.4,29.98,North,355,1.0,1.0,80,0.00,,,0.00,0,Wunderground v.1.15,2013-04-04 06:15:00,
2013-04-03 23:20:00,52.6,46.3,29.98,North,355,0.0,2.0,79,0.00,,,0.00,0,Wunderground v.1.15,2013-04-04 06:20:00,
2013-04-03 23:25:00,52.6,46.3,29.98,North,355,0.0,1.0,79,0.00,,,0.00,0,Wunderground v.1.15,2013-04-04 06:25:00,
2013-04-03 23:30:00,52.4,46.1,29.98,North,360,0.0,2.0,79,0.00,,,0.00,0,Wunderground v.1.15,2013-04-04 06:30:00,
2013-04-03 23:35:00,52.2,46.2,29.98,North,360,0.0,3.0,80,0.00,,,0.00,0,Wunderground v.1.15,2013-04-04 06:35:00,
2013-04-03 23:40:00,52.0,46.0,29.98,North,360,0.0,3.0,80,0.00,,,0.00,0,Wunderground v.1.15,2013-04-04 06:40:00,
2013-04-03 23:45:00,51.9,45.9,29.98,North,360,1.0,2.0,80,0.00,,,0.00,0,Wunderground v.1.15,2013-04-04 06:45:00,
2013-04-03 23:50:00,51.8,46.2,29.98,North,360,1.0,3.0,81,0.00,,,0.00,0,Wunderground v.1.15,2013-04-04 06:50:00,
2013-04-03 23:55:00,51.7,46.1,29.97,North,360,1.0,2.0,81,0.00,,,0.00,0,Wunderground v.1.15,2013-04-04 06:55:00,